EWG14E EDDF-EDDS

Flight info

Callsign EWG14E
Flight time 0h 29m
Altitude 17000
Route ANEKI2L/18 ANEKI Y163 NEKLO Y171 INKAM N850 KRH T128 BADSO BADSO2A
Aircraft A320/M-SDE3FGHIRWY/LB1

Departure

Time 2026-04-15 15:11
Airport Frankfurt Main Airport (EDDF)

Arrival

Time 2026-04-15 15:41
Airport Stuttgart Airport (EDDS)
Time Latitude Longitude Altitude Speed Heading
2026-04-15 14:40 50.04655 8.56810 359 ft 0 kts 295°
2026-04-15 15:01 50.04652 8.56822 356 ft 4 kts 295°
2026-04-15 15:01 50.04640 8.56860 358 ft 4 kts 295°
2026-04-15 15:02 50.04631 8.56896 359 ft 4 kts 272°
2026-04-15 15:02 50.04638 8.56928 356 ft 4 kts 209°
2026-04-15 15:02 50.04663 8.56942 358 ft 4 kts 200°
2026-04-15 15:02 50.04668 8.56945 358 ft 2 kts 205°
2026-04-15 15:03 50.04648 8.56930 364 ft 1 kts 204°
2026-04-15 15:05 50.04620 8.56917 360 ft 10 kts 196°
2026-04-15 15:06 50.04495 8.56869 359 ft 9 kts 195°
2026-04-15 15:06 50.04446 8.56804 364 ft 9 kts 244°
2026-04-15 15:06 50.04421 8.56697 359 ft 15 kts 250°
2026-04-15 15:07 50.04381 8.56528 359 ft 18 kts 250°
2026-04-15 15:07 50.04336 8.56341 362 ft 20 kts 249°
2026-04-15 15:07 50.04287 8.56137 356 ft 21 kts 249°
2026-04-15 15:07 50.04233 8.55913 359 ft 23 kts 249°
2026-04-15 15:08 50.04174 8.55665 355 ft 25 kts 250°
2026-04-15 15:08 50.04110 8.55397 360 ft 27 kts 250°
2026-04-15 15:08 50.04044 8.55121 356 ft 28 kts 250°
2026-04-15 15:08 50.03975 8.54833 356 ft 30 kts 250°
2026-04-15 15:09 50.03901 8.54525 352 ft 31 kts 249°
2026-04-15 15:09 50.03804 8.54233 351 ft 31 kts 245°
2026-04-15 15:09 50.03727 8.53917 346 ft 32 kts 250°
2026-04-15 15:09 50.03647 8.53588 349 ft 33 kts 248°
2026-04-15 15:10 50.03564 8.53250 339 ft 34 kts 249°
2026-04-15 15:10 50.03481 8.52905 336 ft 34 kts 248°
2026-04-15 15:10 50.03406 8.52643 334 ft 21 kts 233°
2026-04-15 15:10 50.03273 8.52593 333 ft 21 kts 179°
2026-04-15 15:11 50.03042 8.52596 335 ft 62 kts 179°
2026-04-15 15:11 50.02383 8.52603 335 ft 125 kts 180°
2026-04-15 15:11 50.01351 8.52608 426 ft 165 kts 179°
2026-04-15 15:11 50.00184 8.52603 1134 ft 168 kts 180°
2026-04-15 15:12 49.99000 8.52625 1838 ft 175 kts 178°
2026-04-15 15:12 49.98142 8.52676 2096 ft 190 kts 177°
2026-04-15 15:12 49.96750 8.52790 2431 ft 210 kts 176°
2026-04-15 15:12 49.95236 8.52919 3014 ft 223 kts 176°
2026-04-15 15:13 49.93668 8.53048 3732 ft 229 kts 177°
2026-04-15 15:13 49.92072 8.53173 3938 ft 229 kts 177°
2026-04-15 15:13 49.90504 8.53289 3992 ft 228 kts 177°
2026-04-15 15:13 49.88904 8.53402 3997 ft 228 kts 177°
2026-04-15 15:14 49.87321 8.53513 3999 ft 228 kts 177°
2026-04-15 15:14 49.85736 8.53624 4000 ft 229 kts 177°
2026-04-15 15:14 49.84163 8.53734 4042 ft 231 kts 177°
2026-04-15 15:14 49.82522 8.53850 4897 ft 232 kts 177°
2026-04-15 15:15 49.80928 8.53960 5840 ft 233 kts 178°
2026-04-15 15:15 49.79300 8.54072 6739 ft 235 kts 178°
2026-04-15 15:15 49.77652 8.54092 7533 ft 241 kts 185°
2026-04-15 15:15 49.75900 8.53867 7954 ft 264 kts 186°
2026-04-15 15:16 49.74022 8.53611 8630 ft 275 kts 186°
2026-04-15 15:16 49.72095 8.53350 9481 ft 280 kts 186°
2026-04-15 15:16 49.70139 8.53087 10321 ft 285 kts 186°
2026-04-15 15:16 49.68086 8.52810 10688 ft 308 kts 186°
2026-04-15 15:17 49.65872 8.52514 10953 ft 332 kts 186°
2026-04-15 15:17 49.63510 8.52201 11354 ft 347 kts 186°
2026-04-15 15:17 49.61076 8.51884 12035 ft 353 kts 186°
2026-04-15 15:17 49.58613 8.51563 12780 ft 357 kts 186°
2026-04-15 15:18 49.56130 8.51237 13533 ft 361 kts 186°
2026-04-15 15:18 49.53616 8.50908 14242 ft 365 kts 186°
2026-04-15 15:18 49.51073 8.50575 14886 ft 369 kts 186°
2026-04-15 15:18 49.48503 8.50237 15522 ft 373 kts 186°
2026-04-15 15:19 49.45902 8.49894 16153 ft 377 kts 186°
2026-04-15 15:19 49.43281 8.49548 16760 ft 381 kts 186°
2026-04-15 15:19 49.40624 8.49200 17103 ft 384 kts 186°
2026-04-15 15:19 49.37936 8.48853 17188 ft 395 kts 186°
2026-04-15 15:20 49.35128 8.48488 17193 ft 411 kts 186°
2026-04-15 15:20 49.32251 8.48291 17189 ft 416 kts 179°
2026-04-15 15:20 49.29360 8.48813 17190 ft 419 kts 169°
2026-04-15 15:20 49.26565 8.50104 17189 ft 422 kts 159°
2026-04-15 15:21 49.23948 8.52135 17189 ft 424 kts 149°
2026-04-15 15:21 49.21455 8.54555 17184 ft 424 kts 149°
2026-04-15 15:21 49.18954 8.56930 17182 ft 423 kts 152°
2026-04-15 15:21 49.16269 8.58758 17185 ft 422 kts 163°
2026-04-15 15:22 49.13430 8.59797 17189 ft 420 kts 173°
2026-04-15 15:22 49.10520 8.60048 17185 ft 418 kts 184°
2026-04-15 15:22 49.07631 8.59662 17188 ft 418 kts 187°
2026-04-15 15:22 49.04735 8.59219 17189 ft 418 kts 187°
2026-04-15 15:23 49.01839 8.58787 17190 ft 418 kts 187°
2026-04-15 15:23 48.98940 8.58511 17189 ft 419 kts 180°
2026-04-15 15:23 48.96025 8.58798 17185 ft 419 kts 176°
2026-04-15 15:23 48.93115 8.59158 17191 ft 420 kts 175°
2026-04-15 15:24 48.90269 8.60122 17192 ft 422 kts 160°
2026-04-15 15:24 48.87710 8.62306 17188 ft 425 kts 142°
2026-04-15 15:24 48.85693 8.65571 17191 ft 426 kts 124°
2026-04-15 15:24 48.84410 8.69620 17187 ft 427 kts 107°
2026-04-15 15:25 48.83981 8.74078 17187 ft 428 kts 89°
2026-04-15 15:25 48.84368 8.78548 17186 ft 428 kts 79°
2026-04-15 15:25 48.84932 8.82978 17190 ft 428 kts 79°
2026-04-15 15:25 48.85498 8.87419 17193 ft 428 kts 79°
2026-04-15 15:26 48.86064 8.91855 17194 ft 428 kts 79°
2026-04-15 15:26 48.86627 8.96301 17196 ft 428 kts 79°
2026-04-15 15:26 48.87185 9.00751 17199 ft 428 kts 79°
2026-04-15 15:26 48.87742 9.05197 17202 ft 429 kts 79°
2026-04-15 15:27 48.88296 9.09639 17205 ft 429 kts 79°
2026-04-15 15:27 48.88813 9.14098 17201 ft 429 kts 84°
2026-04-15 15:27 48.88689 9.18604 17199 ft 428 kts 103°
2026-04-15 15:27 48.87562 9.22748 17203 ft 426 kts 124°
2026-04-15 15:28 48.85528 9.25967 17200 ft 423 kts 146°
2026-04-15 15:28 48.82891 9.27861 17206 ft 421 kts 166°
2026-04-15 15:28 48.79992 9.28253 17197 ft 418 kts 186°
2026-04-15 15:28 48.77206 9.27149 17196 ft 415 kts 206°
2026-04-15 15:29 48.74840 9.24697 17186 ft 413 kts 225°
2026-04-15 15:29 48.73164 9.21229 17034 ft 403 kts 244°
2026-04-15 15:29 48.72383 9.17280 16781 ft 394 kts 264°
2026-04-15 15:29 48.72490 9.13187 16524 ft 390 kts 282°
2026-04-15 15:30 48.73444 9.09371 16263 ft 388 kts 299°
2026-04-15 15:30 48.74791 9.05867 15793 ft 382 kts 294°
2026-04-15 15:30 48.75374 9.02022 15388 ft 373 kts 270°
2026-04-15 15:30 48.74956 8.98179 14877 ft 370 kts 252°
2026-04-15 15:31 48.74006 8.94563 14322 ft 369 kts 245°
2026-04-15 15:31 48.72897 8.91050 13708 ft 368 kts 245°
2026-04-15 15:31 48.71819 8.87538 13087 ft 367 kts 247°
2026-04-15 15:31 48.70881 8.83981 12489 ft 364 kts 250°
2026-04-15 15:32 48.70066 8.80351 11930 ft 361 kts 252°
2026-04-15 15:32 48.69337 8.76730 11310 ft 359 kts 253°
2026-04-15 15:32 48.68670 8.73091 10848 ft 353 kts 255°
2026-04-15 15:32 48.68039 8.69557 10542 ft 343 kts 255°
2026-04-15 15:33 48.67428 8.66136 10348 ft 330 kts 254°
2026-04-15 15:33 48.66700 8.62918 10159 ft 318 kts 240°
2026-04-15 15:33 48.65214 8.60572 9978 ft 307 kts 210°
2026-04-15 15:33 48.63236 8.59580 9806 ft 297 kts 187°
2026-04-15 15:34 48.61217 8.59814 9623 ft 289 kts 164°
2026-04-15 15:34 48.59497 8.61255 9454 ft 281 kts 138°
2026-04-15 15:34 48.58419 8.63639 9219 ft 276 kts 110°
2026-04-15 15:34 48.58233 8.66509 8798 ft 278 kts 79°
2026-04-15 15:35 48.58775 8.69300 8449 ft 276 kts 73°
2026-04-15 15:35 48.59357 8.72090 7906 ft 281 kts 73°
2026-04-15 15:35 48.59926 8.74927 7412 ft 284 kts 74°
2026-04-15 15:35 48.60475 8.77805 6888 ft 287 kts 75°
2026-04-15 15:36 48.61010 8.80686 6571 ft 282 kts 74°
2026-04-15 15:36 48.61535 8.83478 6280 ft 276 kts 73°
2026-04-15 15:36 48.62097 8.86238 5799 ft 276 kts 73°
2026-04-15 15:36 48.62636 8.89021 5472 ft 272 kts 74°
2026-04-15 15:37 48.63164 8.91718 5154 ft 267 kts 73°
2026-04-15 15:37 48.63685 8.94414 4750 ft 265 kts 75°
2026-04-15 15:37 48.64178 8.97018 4354 ft 247 kts 75°
2026-04-15 15:37 48.64621 8.99418 3999 ft 227 kts 75°
2026-04-15 15:38 48.65056 9.01606 3741 ft 209 kts 73°
2026-04-15 15:38 48.65458 9.03652 3568 ft 193 kts 74°
2026-04-15 15:38 48.65805 9.05488 3266 ft 173 kts 75°
2026-04-15 15:38 48.66125 9.07188 2978 ft 164 kts 75°
2026-04-15 15:39 48.66430 9.08833 2772 ft 161 kts 75°
2026-04-15 15:39 48.66725 9.10458 2610 ft 159 kts 75°
2026-04-15 15:39 48.67011 9.11986 2602 ft 147 kts 74°
2026-04-15 15:39 48.67293 9.13460 2273 ft 145 kts 73°
2026-04-15 15:40 48.67575 9.14910 1993 ft 142 kts 72°
2026-04-15 15:40 48.67856 9.16331 1772 ft 141 kts 73°
2026-04-15 15:40 48.68142 9.17737 1575 ft 140 kts 75°
2026-04-15 15:40 48.68409 9.19145 1433 ft 139 kts 76°
2026-04-15 15:41 48.68675 9.20549 1296 ft 139 kts 76°
2026-04-15 15:41 48.68915 9.21856 1249 ft 114 kts 73°
2026-04-15 15:41 48.69090 9.22782 1221 ft 48 kts 75°
2026-04-15 15:41 48.69162 9.23129 1214 ft 16 kts 73°
2026-04-15 15:42 48.69254 9.23198 1213 ft 11 kts 336°
2026-04-15 15:42 48.69258 9.23197 1213 ft 0 kts 347°
2026-04-15 15:42 48.69266 9.23194 1213 ft 7 kts 347°
2026-04-15 15:43 48.69366 9.23148 1220 ft 18 kts 329°
2026-04-15 15:43 48.69402 9.23009 1225 ft 13 kts 259°
2026-04-15 15:43 48.69382 9.22893 1228 ft 10 kts 253°
2026-04-15 15:43 48.69366 9.22810 1229 ft 7 kts 254°
2026-04-15 15:44 48.69352 9.22739 1231 ft 8 kts 253°
2026-04-15 15:44 48.69328 9.22611 1248 ft 17 kts 254°
2026-04-15 15:44 48.69287 9.22400 1251 ft 23 kts 253°
2026-04-15 15:44 48.69245 9.22174 1255 ft 22 kts 253°
2026-04-15 15:45 48.69204 9.21958 1261 ft 21 kts 254°
2026-04-15 15:45 48.69164 9.21749 1253 ft 20 kts 254°
2026-04-15 15:45 48.69126 9.21547 1261 ft 20 kts 253°
2026-04-15 15:45 48.69087 9.21354 1265 ft 19 kts 253°
2026-04-15 15:46 48.69053 9.21163 1270 ft 18 kts 256°
2026-04-15 15:46 48.69018 9.20981 1273 ft 18 kts 254°
2026-04-15 15:46 48.68986 9.20807 1277 ft 17 kts 254°
2026-04-15 15:46 48.68954 9.20639 1279 ft 16 kts 254°
2026-04-15 15:47 48.68924 9.20483 1283 ft 15 kts 253°
2026-04-15 15:47 48.68899 9.20350 1287 ft 11 kts 254°
2026-04-15 15:47 48.68881 9.20258 1289 ft 7 kts 253°
2026-04-15 15:47 48.68865 9.20174 1291 ft 15 kts 255°
2026-04-15 15:48 48.68833 9.20012 1295 ft 16 kts 241°
2026-04-15 15:48 48.68765 9.19872 1296 ft 17 kts 245°
2026-04-15 15:48 48.68731 9.19707 1300 ft 16 kts 254°
2026-04-15 15:48 48.68702 9.19556 1305 ft 14 kts 255°
2026-04-15 15:49 48.68680 9.19435 1308 ft 10 kts 254°
2026-04-15 15:49 48.68666 9.19360 1310 ft 5 kts 254°
2026-04-15 15:49 48.68655 9.19305 1312 ft 8 kts 253°
2026-04-15 15:49 48.68646 9.19202 1314 ft 8 kts 288°
2026-04-15 15:50 48.68683 9.19161 1317 ft 11 kts 339°
2026-04-15 15:50 48.68768 9.19190 1317 ft 14 kts 59°
2026-04-15 15:50 48.68795 9.19326 1314 ft 12 kts 73°
2026-04-15 15:50 48.68820 9.19446 1312 ft 8 kts 57°
2026-04-15 15:51 48.68862 9.19443 1314 ft 4 kts 343°
2026-04-15 15:51 48.68875 9.19437 1315 ft 0 kts 344°
2026-04-15 15:51 48.68890 9.19431 1315 ft 5 kts 343°
2026-04-15 15:51 48.68897 9.19428 1315 ft 0 kts 343°